Content
SEND FEEDBACK

Daily
Averages
Monthly
Summary
Hungary

MEGYERI PUSZTA, HUNGARY


Home > Europe > Hungary
Elevation: 666 feet     Latitude: 46 00N     Longitude: 018 13E

WEATHER
 
SELECT A DAY
Number of Records: 45,290;   Date Range: 6/19/04 - 7/27/14
 
SHARE

PRINT THIS DATA

[ ← Previous Day ]
WEATHER ALMANAC - JANUARY 31, 2013
[ Next Day → ]
[ °C ]   °F
Weather ElementAverageHighLow
Temperature42.2 °F51.8 °F (1:15 pm) (6:00 am)
Dewpoint31.3 °F39.2 °F (12:15 pm) (7:00 pm)
Humidity63 %81 % (8:15 am)46 % (11:45 pm)
Barometer27.41 in30.12 in (10:15 am) (7:00 pm)
Wind Speed9.2 mph21.9 mph (4:45 am)
Wind Gust41.4 mph (4:45 am)
Weather ElementAverage
Visibility11.9 mi
Wind DirectionWNW (276.5 °)

Weather ElementTotal
Precipitation---
Heating Degree Days39.1 (Base 65)
Averaged from 46 records on January 31, 2013
WEATHER CONDITIONS BREAKOUT
WIND DIRECTION BREAKOUT
WEATHER BY HOUR - JANUARY 31, 2013
[ °C ]   °F
Local TimeTemperatureDewpointHumidityBarometerVisibilityWind DirectionWind SpeedGust SpeedPrecipitationEventsConditions
1:00 AM44.0 °F34.0 °F58 %29.88 in44.0 miWNW (300°)13.4 mphPartly Cloudy
1:45 AM42.8 °F33.8 °F70 %29.89 inWNW (300°)13.8 mphClear
2:45 AM42.8 °F35.6 °F76 %29.89 in6.2 miWNW (290°)11.5 mphOvercast
3:45 AM44.6 °F37.4 °F76 %29.95 in6.2 miNNW (340°)13.8 mphRainLight Rain
4:45 AM46.4 °F37.4 °F71 %29.98 in6.2 miNNW (330°)21.9 mph41.4 mphRainLight Rain
5:15 AM48.2 °F33.8 °F58 %30.01 in6.2 miNNW (330°)15.0 mph26.5 mphRainLight Rain
5:45 AM48.2 °F33.8 °F58 %29.98 in6.2 miNorth (350°)13.8 mphRainLight Rain
6:00 AM0.0 °F0.0 °FNNW (330°)15.0 mph26.5 mphDust Whirls
6:15 AM46.4 °F33.8 °F62 %30.01 in6.2 miNNW (340°)10.4 mphOvercast
6:45 AM46.4 °F33.8 °F62 %30.01 in6.2 miNorth (350°)15.0 mphMostly Cloudy
7:00 AM47.0 °F33.0 °F47 %30.03 in31.0 miNorth (350°)13.4 mphRainLight Rain
7:15 AM44.6 °F33.8 °F66 %30.04 in6.2 miNNW (330°)5.8 mphMostly Cloudy
7:45 AM42.8 °F32.0 °F66 %30.06 inWNW (290°)4.6 mphClear
8:15 AM39.2 °F33.8 °F81 %30.06 inWSW (240°)9.2 mphClear
8:45 AM41.0 °F33.8 °F76 %30.09 inWest (280°)9.2 mphClear
9:00 AM0.0 °F0.0 °FWNW (300°)11.5 mphDust Whirls
9:15 AM42.8 °F35.6 °F76 %30.09 inNW (310°)5.8 mphClear
9:45 AM41.0 °F35.6 °F81 %30.09 inNNW (330°)6.9 mphClear
10:15 AM44.6 °F37.4 °F76 %30.12 inNW (310°)6.9 mphClear
10:45 AM46.4 °F37.4 °F71 %30.12 inWNW (300°)8.1 mphClear
11:15 AM46.4 °F37.4 °F71 %30.12 inWNW (290°)9.2 mphClear
12:00 PM0.0 °F0.0 °FWNW (300°)9.2 mphDust Whirls
12:15 PM50.0 °F39.2 °F66 %30.12 in6.2 miWSW (250°)8.1 mphPartly Cloudy
12:45 PM50.0 °F37.4 °F62 %30.12 in6.2 miWest (260°)10.4 mphPartly Cloudy
1:00 PM50.0 °F37.0 °F51 %30.12 in16.0 miWest (260°)8.9 mphPartly Cloudy
1:15 PM51.8 °F33.8 °F50 %30.09 in6.2 miWest (260°)8.1 mphPartly Cloudy
1:45 PM51.8 °F32.0 °F47 %30.06 in6.2 miWest (270°)6.9 mphPartly Cloudy
2:15 PM51.8 °F32.0 °F47 %30.06 in6.2 miWest (270°)10.4 mphPartly Cloudy
2:45 PM51.8 °F32.0 °F47 %30.06 inWest (280°)9.2 mphClear
3:00 PM0.0 °F0.0 °FWSW (240°)6.9 mphDust Whirls
3:15 PM51.8 °F35.6 °F54 %30.04 inWest (260°)6.9 mphClear
3:45 PM51.8 °F35.6 °F54 %30.04 inWest (260°)6.9 mphClear
4:15 PM51.8 °F33.8 °F50 %30.04 inWest (260°)6.9 mphClear
4:45 PM50.0 °F35.6 °F58 %30.04 inSW (230°)9.2 mphClear
5:15 PM44.6 °F35.6 °F71 %30.04 inWest (260°)4.6 mphClear
5:45 PM44.6 °F35.6 °F71 %30.04 inWSW (240°)4.6 mphClear
6:15 PM48.2 °F33.8 °F58 %30.01 inSW (230°)9.2 mphClear
6:45 PM42.8 °F33.8 °F70 %30.01 inSW (220°)6.9 mphClear
7:00 PM43.0 °F34.0 °F60 %30.03 in31.0 miSW (220°)6.7 mphPartly Cloudy
7:15 PM44.6 °F33.8 °F66 %30.01 inSSW (210°)9.2 mphClear
7:45 PM44.6 °F33.8 °F66 %29.98 inSSW (210°)8.1 mphClear
8:15 PM42.8 °F32.0 °F66 %29.95 inSouth (190°)4.6 mphClear
8:45 PM42.8 °F30.2 °F61 %29.92 inSouth (170°)5.8 mphClear
9:45 PM44.6 °F30.2 °F57 %29.92 inSW (220°)6.9 mphClear
10:45 PM42.8 °F32.0 °F66 %29.92 inWest (280°)4.6 mphClear
11:45 PM48.2 °F28.4 °F46 %29.92 inWest (280°)9.2 mphClear
Hourly data recorded from LHPP, located miles away from Megyeri Puszta, Hungary







STORIES FROM OUR PARTNERS